Weather History for KGAG - February, 2014

Change the Weather History Date:

Thursday, February 6, 2014

  Actual Average Record
Temperature  
Mean Temperature 6 °F -  
Max Temperature 10 °F 46 °F 75 °F (2009)
Min Temperature 3 °F 19 °F 3 °F (2014)
Degree Days  
Heating Degree Days 58    
Moisture  
Dew Point 0 °F    
Average Humidity 76    
Maximum Humidity 85    
Minimum Humidity 67    
Precipitation  
Precipitation 0.00 in - - ()
Sea Level Pressure  
Sea Level Pressure 30.51 in    
Wind  
Wind Speed 8 mph (ENE)    
Max Wind Speed 13 mph    
Max Gust Speed -    
Visibility 8 miles    
Events Snow    
Averages and records for this station are not official NWS values.
T = Trace of Precipitation, MM = Missing Value Source: NWS Daily Summary

Daily Weather History Graph

Daily Weather History Graph

Search for Another Location

Airport or City:

Trip Planner

Search our weather history database for the weather conditions in past years. The results will help you decide how hot, cold, wet, or windy it might be!

Date:

Astronomy

Feb. 06, 2014 Rise Set
Actual Time 7:35 AM CST 6:10 PM CST
Civil Twilight 7:09 AM CST 6:37 PM CST
Nautical Twilight 6:38 AM CST 7:08 PM CST
Astronomical Twilight 6:08 AM CST 7:38 PM CST
Moon 11:44 AM CST (2/6) 12:53 AM CST (2/6)
Length of Visible Light 11h 28m
Length of Day
10h 35m
Waxing Crescent, 49% of the Moon is Illuminated
Feb 6
Waxing Crescent
Feb 6
First Quarter
Feb 14
Full
Feb 22
Last Quarter
Mar 1
New

Hourly Weather History & Observations

Time (CST) Temp. Windchill Dew Point Humidity Pressure Visibility Wind Dir Wind Speed Gust Speed Precip Events Conditions
12:29 AM 3.2 °F -13.9 °F -0.4 °F 85% 30.55 in 2.5 mi NNE 12.7 mph - 0.00 in Snow Light Snow
12:53 AM 3.9 °F -11.3 °F -0.9 °F 80% 30.70 in 1.5 mi NNE 10.4 mph - 0.00 in Snow Light Snow
1:21 AM 3.2 °F -11.3 °F -0.4 °F 85% 30.55 in 3.0 mi NNE 9.2 mph - 0.00 in Snow Light Snow
1:34 AM 3.2 °F -9.1 °F -0.4 °F 85% 30.55 in 2.5 mi NNE 6.9 mph - 0.00 in Snow Light Snow
1:44 AM 3.2 °F -9.1 °F -0.4 °F 85% 30.55 in 4.0 mi NNE 6.9 mph - 0.00 in Snow Light Snow
1:53 AM 3.9 °F -9.4 °F -0.9 °F 80% 30.69 in 6.0 mi NNE 8.1 mph - 0.00 in Snow Light Snow
2:53 AM 5.0 °F -8.1 °F -0.9 °F 76% 30.68 in 2.5 mi NNE 8.1 mph - 0.00 in Snow Light Snow
3:02 AM 3.2 °F -11.3 °F -0.4 °F 85% 30.54 in 3.0 mi NNE 9.2 mph - 0.00 in Snow Light Snow
3:05 AM 3.2 °F -10.3 °F -0.4 °F 85% 30.54 in 2.5 mi NNE 8.1 mph - 0.00 in Snow Light Snow
3:24 AM 3.2 °F -10.3 °F -0.4 °F 85% 30.55 in 2.5 mi NNE 8.1 mph - 0.00 in Snow Light Snow
3:53 AM 3.9 °F -9.4 °F -0.9 °F 80% 30.68 in 2.0 mi NNE 8.1 mph - 0.00 in Snow Light Snow
4:21 AM 3.2 °F -11.3 °F -0.4 °F 85% 30.53 in 3.0 mi NNE 9.2 mph - 0.00 in Snow Light Snow
4:53 AM 3.0 °F -12.5 °F -2.0 °F 80% 30.66 in 6.0 mi NNE 10.4 mph - 0.00 in Snow Light Snow
5:53 AM 3.0 °F -8.0 °F -2.0 °F 80% 30.66 in 8.0 mi NNE 5.8 mph - 0.00 in Snow Light Snow
6:53 AM 3.0 °F -9.3 °F -2.0 °F 80% 30.65 in 8.0 mi NE 6.9 mph - 0.00 in   Overcast
7:53 AM 3.9 °F -8.2 °F -2.0 °F 76% 30.66 in 10.0 mi ENE 6.9 mph - N/A   Overcast
8:53 AM 3.9 °F -8.2 °F -0.9 °F 80% 30.66 in 5.0 mi ENE 6.9 mph - 0.00 in   Haze
9:53 AM 5.0 °F -5.6 °F -2.0 °F 73% 30.66 in 9.0 mi ENE 5.8 mph - N/A   Overcast
10:53 AM 6.1 °F -2.8 °F -0.9 °F 73% 30.66 in 6.0 mi ENE 4.6 mph - N/A   Haze
11:53 AM 8.1 °F -3.2 °F -0.0 °F 70% 30.63 in 5.0 mi ENE 6.9 mph - 0.00 in Snow Light Snow
12:53 PM 9.0 °F 0.6 °F 1.0 °F 70% 30.59 in 10.0 mi East 4.6 mph - 0.00 in   Overcast
1:35 PM 8.6 °F -2.6 °F -0.4 °F 67% 30.42 in 10.0 mi East 6.9 mph - N/A   Overcast
1:53 PM 10.0 °F -0.9 °F 1.0 °F 67% 30.53 in 10.0 mi East 6.9 mph - N/A   Overcast
2:28 PM 8.6 °F -1.3 °F 1.4 °F 73% 30.38 in 10.0 mi East 5.8 mph - N/A   Overcast
2:53 PM 10.0 °F 1.8 °F 1.0 °F 67% 30.50 in 10.0 mi ENE 4.6 mph - N/A   Overcast
3:12 PM 8.6 °F 0.1 °F 1.4 °F 73% 30.37 in 10.0 mi ESE 4.6 mph - N/A   Overcast
3:23 PM 8.6 °F -1.3 °F 1.4 °F 73% 30.37 in 10.0 mi ESE 5.8 mph - N/A   Overcast
3:53 PM 9.0 °F -0.9 °F 1.0 °F 70% 30.49 in 10.0 mi East 5.8 mph - 0.00 in   Overcast
4:19 PM 8.6 °F -1.3 °F 1.4 °F 73% 30.36 in 10.0 mi ESE 5.8 mph - 0.00 in   Overcast
4:30 PM 8.6 °F 0.1 °F 1.4 °F 73% 30.35 in 10.0 mi ESE 4.6 mph - 0.00 in   Overcast
4:40 PM 8.6 °F 0.1 °F 1.4 °F 73% 30.35 in 10.0 mi East 4.6 mph - 0.00 in   Overcast
4:53 PM 9.0 °F 0.6 °F 1.9 °F 73% 30.49 in 10.0 mi East 4.6 mph - 0.00 in   Overcast
5:53 PM 8.1 °F -3.2 °F 1.0 °F 73% 30.48 in 10.0 mi East 6.9 mph - N/A   Overcast
6:04 PM 8.6 °F -3.7 °F 1.4 °F 73% 30.34 in 10.0 mi East 8.1 mph - N/A   Overcast
6:53 PM 8.1 °F -2.0 °F 1.9 °F 76% 30.49 in 10.0 mi East 5.8 mph - N/A   Overcast
7:08 PM 8.6 °F -2.6 °F 1.4 °F 73% 30.35 in 10.0 mi East 6.9 mph - N/A   Overcast
7:16 PM 8.6 °F -2.6 °F 1.4 °F 73% 30.35 in 10.0 mi East 6.9 mph - N/A   Overcast
7:26 PM 8.6 °F -1.3 °F 1.4 °F 73% 30.35 in 10.0 mi East 5.8 mph - N/A   Overcast
7:53 PM 8.1 °F -2.0 °F 1.9 °F 76% 30.48 in 10.0 mi East 5.8 mph - N/A   Overcast
8:10 PM 8.6 °F -2.6 °F 1.4 °F 73% 30.34 in 10.0 mi East 6.9 mph - N/A   Overcast
8:53 PM 8.1 °F -3.2 °F 1.9 °F 76% 30.46 in 10.0 mi East 6.9 mph - N/A   Overcast
9:53 PM 8.1 °F -5.3 °F 1.9 °F 76% 30.45 in 10.0 mi ESE 9.2 mph - N/A   Overcast
10:53 PM 7.0 °F -4.5 °F 1.9 °F 80% 30.43 in 10.0 mi ESE 6.9 mph - N/A   Overcast
11:53 PM 7.0 °F -3.3 °F 1.9 °F 80% 30.42 in 10.0 mi SE 5.8 mph - N/A   Overcast